Private Wetterstation Wechselburg
Wetterdaten: Sonntag, 18.10.2009
Datum Zeit Temp. +2m Bodentemp. Temp.+5cm Temp. Wind Windchill X Diff Temp. Feuchte +2m Feuchte +5cm Sonnenschein Luftdruck Regen Wind Richtung Richtung Sonnenschein UV Taupunkt Windchill Windben
18.10.2009 00:00 5,3 C 9,1 C 5,1 C 5,2 C 5,0 C 0,0 C 93 % 98 % 0 % 1019,7 hPa 0,0 l/m 0,0 km/h (0 Bft) SO 135 0 min 0,0 UV-I 4,3 C 5,0 C 0,0 km/h (0 Bft)
18.10.2009 00:07 5,5 C 9,1 C 5,2 C 5,4 C 5,1 C 0,0 C 93 % 98 % 0 % 1019,9 hPa 0,0 l/m 0,2 km/h (0 Bft) SW 225 0 min 0,0 UV-I 4,5 C 5,1 C 0,0 km/h (0 Bft)
18.10.2009 00:10 5,5 C 9,1 C 5,2 C 5,4 C 5,1 C 0,0 C 93 % 98 % 0 % 1019,9 hPa 0,0 l/m 0,2 km/h (0 Bft) SW 225 0 min 0,0 UV-I 4,5 C 5,1 C 1,8 km/h (1 Bft)
18.10.2009 00:15 5,4 C 9,1 C 5,2 C 5,3 C 5,1 C 0,0 C 93 % 98 % 0 % 1019,9 hPa 0,0 l/m 0,2 km/h (0 Bft) O-SO 112 0 min 0,0 UV-I 4,4 C 5,1 C 0,0 km/h (0 Bft)
18.10.2009 00:20 5,4 C 9,1 C 5,2 C 5,3 C 5,0 C 0,0 C 93 % 98 % 0 % 1019,9 hPa 0,0 l/m 0,0 km/h (0 Bft) S 180 0 min 0,0 UV-I 4,4 C 5,0 C 0,0 km/h (0 Bft)
18.10.2009 00:25 5,3 C 9,1 C 5,2 C 5,2 C 5,0 C 0,0 C 93 % 98 % 0 % 1020,0 hPa 0,0 l/m 0,0 km/h (0 Bft) O-SO 112 0 min 0,0 UV-I 4,3 C 5,0 C 0,0 km/h (0 Bft)
18.10.2009 00:30 5,3 C 9,1 C 5,2 C 5,2 C 5,0 C 0,0 C 93 % 98 % 0 % 1020,0 hPa 0,0 l/m 0,0 km/h (0 Bft) NO 45 0 min 0,0 UV-I 4,3 C 5,0 C 2,1 km/h (1 Bft)
18.10.2009 00:35 5,3 C 9,1 C 5,2 C 5,2 C 5,0 C 0,0 C 93 % 98 % 0 % 1020,0 hPa 0,0 l/m 0,2 km/h (0 Bft) N-NO 22 0 min 0,0 UV-I 4,3 C 5,0 C 1,9 km/h (1 Bft)
18.10.2009 00:40 5,3 C 9,1 C 5,1 C 5,2 C 5,0 C 0,0 C 93 % 98 % 0 % 1020,0 hPa 0,0 l/m 0,2 km/h (0 Bft) S 180 0 min 0,0 UV-I 4,3 C 5,0 C 0,0 km/h (0 Bft)
18.10.2009 00:45 5,3 C 9,1 C 5,1 C 5,2 C 5,0 C 0,0 C 93 % 98 % 0 % 1019,9 hPa 0,0 l/m 0,2 km/h (0 Bft) N-NO 22 0 min 0,0 UV-I 4,3 C 5,0 C 0,0 km/h (0 Bft)
18.10.2009 00:50 5,3 C 9,1 C 5,1 C 5,1 C 4,8 C 0,0 C 93 % 98 % 0 % 1019,9 hPa 0,0 l/m 0,2 km/h (0 Bft) SW 225 0 min 0,0 UV-I 4,3 C 4,8 C 2,9 km/h (1 Bft)
18.10.2009 00:55 5,3 C 9,1 C 5,1 C 5,1 C 4,7 C 0,0 C 93 % 98 % 0 % 1019,9 hPa 0,0 l/m 0,2 km/h (0 Bft) W-SW 247 0 min 0,0 UV-I 4,3 C 4,7 C 0,0 km/h (0 Bft)
18.10.2009 01:00 5,3 C 9,1 C 5,1 C 5,1 C 4,8 C 0,0 C 93 % 98 % 0 % 1019,9 hPa 0,0 l/m 0,0 km/h (0 Bft) W-SW 247 0 min 0,0 UV-I 4,3 C 4,8 C 0,0 km/h (0 Bft)
18.10.2009 01:10 5,2 C 9,1 C 5,0 C 5,1 C 4,8 C 0,0 C 93 % 98 % 0 % 1020,4 hPa 0,0 l/m 0,0 km/h (0 Bft) W-SW 247 0 min 0,0 UV-I 4,2 C 4,8 C 0,0 km/h (0 Bft)
18.10.2009 01:15 5,2 C 9,1 C 5,0 C 5,1 C 4,8 C 0,0 C 93 % 98 % 0 % 1020,4 hPa 0,0 l/m 0,0 km/h (0 Bft) W-SW 247 0 min 0,0 UV-I 4,2 C 4,8 C 0,0 km/h (0 Bft)
18.10.2009 01:20 5,3 C 9,1 C 5,1 C 5,1 C 4,7 C 0,0 C 93 % 98 % 0 % 1020,4 hPa 0,0 l/m 0,0 km/h (0 Bft) NO 45 0 min 0,0 UV-I 4,3 C 4,7 C 0,0 km/h (0 Bft)
18.10.2009 01:25 5,2 C 9,1 C 5,1 C 5,0 C 4,7 C 0,0 C 93 % 98 % 0 % 1019,9 hPa 0,0 l/m 0,0 km/h (0 Bft) W-SW 247 0 min 0,0 UV-I 4,2 C 4,7 C 0,0 km/h (0 Bft)
18.10.2009 01:30 5,2 C 9,1 C 5,0 C 5,0 C 4,7 C 0,0 C 93 % 98 % 0 % 1019,9 hPa 0,0 l/m 0,0 km/h (0 Bft) O 90 0 min 0,0 UV-I 4,2 C 4,7 C 0,0 km/h (0 Bft)
18.10.2009 01:35 5,2 C 9,1 C 5,1 C 5,0 C 4,7 C 0,0 C 93 % 98 % 0 % 1019,9 hPa 0,0 l/m 0,0 km/h (0 Bft) SO 135 0 min 0,0 UV-I 4,2 C 4,7 C 0,0 km/h (0 Bft)
18.10.2009 01:40 5,3 C 9,1 C 5,1 C 5,1 C 4,8 C 0,0 C 93 % 98 % 0 % 1019,9 hPa 0,0 l/m 0,0 km/h (0 Bft) SW 225 0 min 0,0 UV-I 4,3 C 4,8 C 0,0 km/h (0 Bft)
18.10.2009 01:45 5,3 C 9,1 C 5,1 C 5,1 C 4,8 C 0,0 C 93 % 98 % 0 % 1019,9 hPa 0,0 l/m 0,0 km/h (0 Bft) S 180 0 min 0,0 UV-I 4,3 C 4,8 C 0,0 km/h (0 Bft)
18.10.2009 01:50 5,2 C 9,1 C 5,1 C 5,0 C 4,7 C 0,0 C 93 % 98 % 0 % 1019,9 hPa 0,0 l/m 0,0 km/h (0 Bft) SO 135 0 min 0,0 UV-I 4,2 C 4,7 C 0,0 km/h (0 Bft)
18.10.2009 01:55 5,2 C 9,1 C 5,1 C 5,1 C 4,8 C 0,0 C 93 % 98 % 0 % 1019,9 hPa 0,0 l/m 0,0 km/h (0 Bft) W-SW 247 0 min 0,0 UV-I 4,2 C 4,8 C 0,0 km/h (0 Bft)
18.10.2009 02:00 5,2 C 9,1 C 5,1 C 5,0 C 4,7 C 0,0 C 93 % 98 % 0 % 1019,9 hPa 0,0 l/m 0,0 km/h (0 Bft) S 180 0 min 0,0 UV-I 4,2 C 4,7 C 0,0 km/h (0 Bft)
18.10.2009 02:10 5,3 C 9,1 C 5,1 C 5,1 C 4,8 C 0,0 C 93 % 98 % 0 % 1020,3 hPa 0,0 l/m 0,2 km/h (0 Bft) SW 225 0 min 0,0 UV-I 4,3 C 4,8 C 0,0 km/h (0 Bft)
18.10.2009 02:15 5,3 C 9,1 C 5,1 C 5,1 C 4,8 C 0,0 C 93 % 98 % 0 % 1020,3 hPa 0,0 l/m 0,0 km/h (0 Bft) S-SW 202 0 min 0,0 UV-I 4,3 C 4,8 C 0,0 km/h (0 Bft)
18.10.2009 02:20 5,2 C 9,1 C 5,1 C 5,1 C 4,8 C 0,0 C 93 % 98 % 0 % 1020,3 hPa 0,0 l/m 0,5 km/h (0 Bft) S 180 0 min 0,0 UV-I 4,2 C 4,8 C 3,2 km/h (1 Bft)
18.10.2009 02:25 5,3 C 9,1 C 5,0 C 5,1 C 4,8 C 0,0 C 93 % 98 % 0 % 1019,9 hPa 0,0 l/m 0,5 km/h (0 Bft) S 180 0 min 0,0 UV-I 4,3 C 4,8 C 0,0 km/h (0 Bft)
18.10.2009 02:30 5,2 C 9,1 C 5,0 C 5,1 C 4,8 C 0,0 C 93 % 98 % 0 % 1019,9 hPa 0,0 l/m 0,3 km/h (0 Bft) SW 225 0 min 0,0 UV-I 4,2 C 4,8 C 3,2 km/h (1 Bft)
18.10.2009 02:35 5,3 C 9,1 C 4,9 C 5,1 C 4,8 C 0,0 C 93 % 98 % 0 % 1019,9 hPa 0,0 l/m 0,5 km/h (0 Bft) W-SW 247 0 min 0,0 UV-I 4,3 C 4,8 C 0,0 km/h (0 Bft)
18.10.2009 02:40 5,2 C 9,1 C 4,9 C 5,1 C 4,8 C 0,0 C 93 % 98 % 0 % 1019,9 hPa 0,0 l/m 0,6 km/h (0 Bft) NW 315 0 min 0,0 UV-I 4,2 C 4,8 C 0,0 km/h (0 Bft)
18.10.2009 02:45 5,2 C 9,1 C 5,0 C 5,1 C 5,0 C 0,0 C 93 % 98 % 0 % 1020,2 hPa 0,0 l/m 0,3 km/h (0 Bft) N-NO 22 0 min 0,0 UV-I 4,2 C 5,0 C 0,0 km/h (0 Bft)
18.10.2009 02:50 5,2 C 9,1 C 5,1 C 5,1 C 5,0 C 0,0 C 93 % 98 % 0 % 1020,2 hPa 0,0 l/m 0,2 km/h (0 Bft) S 180 0 min 0,0 UV-I 4,2 C 5,0 C 2,6 km/h (1 Bft)
18.10.2009 02:55 5,3 C 9,1 C 5,1 C 5,2 C 5,0 C 0,0 C 93 % 98 % 0 % 1020,2 hPa 0,0 l/m 0,5 km/h (0 Bft) S 180 0 min 0,0 UV-I 4,3 C 5,0 C 0,0 km/h (0 Bft)
18.10.2009 03:00 5,2 C 9,1 C 4,9 C 5,1 C 5,0 C 0,0 C 93 % 98 % 0 % 1020,2 hPa 0,0 l/m 1,1 km/h (1 Bft) W 270 0 min 0,0 UV-I 4,2 C 5,0 C 3,9 km/h (1 Bft)
18.10.2009 03:10 5,2 C 9,1 C 5,0 C 5,1 C 5,0 C 0,0 C 93 % 98 % 0 % 1020,2 hPa 0,0 l/m 0,3 km/h (0 Bft) N-NW 337 0 min 0,0 UV-I 4,2 C 5,0 C 0,0 km/h (0 Bft)
18.10.2009 03:15 5,2 C 9,1 C 5,0 C 5,1 C 4,8 C 0,0 C 93 % 98 % 0 % 1020,2 hPa 0,0 l/m 0,3 km/h (0 Bft) S-SW 202 0 min 0,0 UV-I 4,2 C 4,8 C 2,3 km/h (1 Bft)
18.10.2009 03:20 5,2 C 9,1 C 4,9 C 5,1 C 4,8 C 0,0 C 93 % 98 % 0 % 1020,2 hPa 0,0 l/m 0,3 km/h (0 Bft) SO 135 0 min 0,0 UV-I 4,2 C 4,8 C 0,0 km/h (0 Bft)
18.10.2009 03:25 5,2 C 9,1 C 4,9 C 5,0 C 4,7 C 0,0 C 93 % 98 % 0 % 1020,1 hPa 0,0 l/m 0,2 km/h (0 Bft) SO 135 0 min 0,0 UV-I 4,2 C 4,7 C 0,0 km/h (0 Bft)
18.10.2009 03:30 5,2 C 9,1 C 4,9 C 5,0 C 4,6 C 0,0 C 93 % 98 % 0 % 1020,1 hPa 0,0 l/m 0,3 km/h (0 Bft) S 180 0 min 0,0 UV-I 4,2 C 4,6 C 2,1 km/h (1 Bft)
18.10.2009 03:35 5,3 C 9,1 C 4,8 C 5,1 C 4,6 C 0,0 C 93 % 98 % 0 % 1020,1 hPa 0,0 l/m 0,3 km/h (0 Bft) SW 225 0 min 0,0 UV-I 4,3 C 4,6 C 0,0 km/h (0 Bft)
18.10.2009 03:40 5,3 C 9,1 C 4,8 C 5,0 C 4,5 C 0,0 C 93 % 98 % 0 % 1020,1 hPa 0,0 l/m 0,2 km/h (0 Bft) S-SW 202 0 min 0,0 UV-I 4,3 C 4,5 C 0,0 km/h (0 Bft)
18.10.2009 03:45 5,3 C 9,1 C 4,8 C 5,0 C 4,5 C 0,0 C 93 % 98 % 0 % 1019,8 hPa 0,0 l/m 0,3 km/h (0 Bft) W-SW 247 0 min 0,0 UV-I 4,3 C 4,5 C 2,1 km/h (1 Bft)
18.10.2009 03:50 5,3 C 9,1 C 4,9 C 5,0 C 4,5 C 0,0 C 93 % 98 % 0 % 1019,8 hPa 0,0 l/m 0,6 km/h (0 Bft) S-SW 202 0 min 0,0 UV-I 4,3 C 4,5 C 0,0 km/h (0 Bft)
18.10.2009 03:55 5,2 C 9,1 C 4,9 C 4,9 C 4,4 C 0,0 C 93 % 98 % 0 % 1019,8 hPa 0,0 l/m 0,8 km/h (0 Bft) S 180 0 min 0,0 UV-I 4,2 C 4,4 C 2,4 km/h (1 Bft)
18.10.2009 04:00 5,2 C 9,1 C 4,8 C 5,0 C 4,5 C 0,0 C 93 % 98 % 0 % 1019,8 hPa 0,0 l/m 0,6 km/h (0 Bft) W-SW 247 0 min 0,0 UV-I 4,2 C 4,5 C 4,2 km/h (1 Bft)
18.10.2009 04:10 5,2 C 9,1 C 4,8 C 5,0 C 4,6 C 0,0 C 93 % 98 % 0 % 1020,3 hPa 0,0 l/m 0,3 km/h (0 Bft) SW 225 0 min 0,0 UV-I 4,2 C 4,6 C 0,0 km/h (0 Bft)
18.10.2009 04:15 5,2 C 9,1 C 4,8 C 5,0 C 4,6 C 0,0 C 93 % 98 % 0 % 1020,3 hPa 0,0 l/m 0,3 km/h (0 Bft) S 180 0 min 0,0 UV-I 4,2 C 4,6 C 2,4 km/h (1 Bft)
18.10.2009 04:20 5,2 C 9,1 C 4,8 C 5,0 C 4,7 C 0,0 C 93 % 98 % 0 % 1020,3 hPa 0,0 l/m 0,6 km/h (0 Bft) W 270 0 min 0,0 UV-I 4,2 C 4,7 C 0,0 km/h (0 Bft)
18.10.2009 04:25 5,2 C 9,1 C 4,8 C 5,0 C 4,7 C 0,0 C 93 % 98 % 0 % 1019,8 hPa 0,0 l/m 0,5 km/h (0 Bft) NW 315 0 min 0,0 UV-I 4,2 C 4,7 C 0,0 km/h (0 Bft)
18.10.2009 04:30 5,2 C 9,1 C 4,8 C 5,1 C 4,8 C 0,0 C 93 % 98 % 0 % 1019,8 hPa 0,0 l/m 0,3 km/h (0 Bft) S 180 0 min 0,0 UV-I 4,2 C 4,8 C 0,0 km/h (0 Bft)
18.10.2009 04:35 5,2 C 9,1 C 4,8 C 5,1 C 4,8 C 0,0 C 93 % 98 % 0 % 1019,8 hPa 0,0 l/m 0,6 km/h (0 Bft) W-SW 247 0 min 0,0 UV-I 4,2 C 4,8 C 1,9 km/h (1 Bft)
18.10.2009 04:40 5,2 C 9,1 C 4,8 C 5,1 C 4,8 C 0,0 C 93 % 98 % 0 % 1019,8 hPa 0,0 l/m 0,5 km/h (0 Bft) NW 315 0 min 0,0 UV-I 4,2 C 4,8 C 0,0 km/h (0 Bft)
18.10.2009 04:45 5,2 C 9,1 C 4,8 C 5,0 C 4,7 C 0,0 C 93 % 98 % 0 % 1019,8 hPa 0,0 l/m 0,3 km/h (0 Bft) NW 315 0 min 0,0 UV-I 4,2 C 4,7 C 0,0 km/h (0 Bft)
18.10.2009 04:50 5,3 C 9,1 C 4,9 C 5,1 C 4,8 C 0,0 C 93 % 98 % 0 % 1019,8 hPa 0,0 l/m 0,2 km/h (0 Bft) SW 225 0 min 0,0 UV-I 4,3 C 4,8 C 4,0 km/h (1 Bft)
18.10.2009 04:55 5,2 C 9,1 C 4,8 C 5,1 C 4,8 C 0,0 C 93 % 98 % 0 % 1019,8 hPa 0,0 l/m 0,8 km/h (0 Bft) W 270 0 min 0,0 UV-I 4,2 C 4,8 C 0,0 km/h (0 Bft)
18.10.2009 05:00 5,2 C 9,1 C 4,8 C 5,0 C 4,6 C 0,0 C 93 % 98 % 0 % 1019,8 hPa 0,0 l/m 1,8 km/h (1 Bft) SW 225 0 min 0,0 UV-I 4,2 C 4,6 C 5,0 km/h (1 Bft)
18.10.2009 05:10 5,1 C 9,1 C 4,8 C 4,9 C 4,4 C 0,0 C 93 % 98 % 0 % 1019,6 hPa 0,0 l/m 0,5 km/h (0 Bft) W-SW 247 0 min 0,0 UV-I 4,1 C 4,4 C 0,0 km/h (0 Bft)
18.10.2009 05:15 5,1 C 9,1 C 4,8 C 4,9 C 4,4 C 0,0 C 93 % 98 % 0 % 1019,6 hPa 0,0 l/m 0,3 km/h (0 Bft) S 180 0 min 0,0 UV-I 4,1 C 4,4 C 0,0 km/h (0 Bft)
18.10.2009 05:20 5,1 C 9,1 C 4,8 C 4,9 C 4,4 C 0,0 C 93 % 98 % 0 % 1019,6 hPa 0,0 l/m 0,5 km/h (0 Bft) O-SO 112 0 min 0,0 UV-I 4,1 C 4,4 C 5,1 km/h (1 Bft)
18.10.2009 05:25 5,2 C 9,1 C 4,8 C 5,0 C 4,5 C 0,0 C 93 % 98 % 0 % 1020,1 hPa 0,0 l/m 0,8 km/h (0 Bft) W-SW 247 0 min 0,0 UV-I 4,2 C 4,5 C 2,4 km/h (1 Bft)
18.10.2009 05:30 5,1 C 9,1 C 4,8 C 4,9 C 4,6 C 0,0 C 93 % 98 % 0 % 1020,1 hPa 0,0 l/m 1,4 km/h (1 Bft) S 180 0 min 0,0 UV-I 4,1 C 4,6 C 2,6 km/h (1 Bft)
18.10.2009 05:35 5,1 C 9,1 C 4,8 C 4,9 C 4,6 C 0,0 C 93 % 98 % 0 % 1020,1 hPa 0,0 l/m 2,1 km/h (1 Bft) SW 225 0 min 0,0 UV-I 4,1 C 4,6 C 3,9 km/h (1 Bft)
18.10.2009 05:40 5,1 C 9,1 C 4,8 C 4,9 C 4,6 C 0,0 C 93 % 98 % 0 % 1020,1 hPa 0,0 l/m 2,6 km/h (1 Bft) W-NW 292 0 min 0,0 UV-I 4,1 C 4,6 C 4,2 km/h (1 Bft)
18.10.2009 05:45 5,1 C 9,1 C 4,8 C 4,9 C 4,6 C 0,0 C 93 % 98 % 0 % 1020,1 hPa 0,0 l/m 2,4 km/h (1 Bft) W-SW 247 0 min 0,0 UV-I 4,1 C 4,6 C 0,0 km/h (0 Bft)
18.10.2009 05:50 5,1 C 9,0 C 4,8 C 5,0 C 4,7 C 0,0 C 93 % 98 % 0 % 1020,1 hPa 0,0 l/m 1,6 km/h (1 Bft) SW 225 0 min 0,0 UV-I 4,1 C 4,7 C 6,9 km/h (2 Bft)
18.10.2009 05:55 5,1 C 9,1 C 4,8 C 5,0 C 4,7 C 0,0 C 93 % 98 % 0 % 1020,1 hPa 0,0 l/m 2,1 km/h (1 Bft) S 180 0 min 0,0 UV-I 4,1 C 4,7 C 4,8 km/h (1 Bft)
18.10.2009 06:00 5,1 C 9,1 C 4,7 C 5,0 C 4,7 C 0,0 C 93 % 98 % 0 % 1020,1 hPa 0,0 l/m 2,4 km/h (1 Bft) SW 225 0 min 0,0 UV-I 4,1 C 4,7 C 2,1 km/h (1 Bft)
18.10.2009 06:06 5,1 C 9,1 C 4,8 C 5,0 C 4,7 C 0,0 C 93 % 98 % 0 % 1019,7 hPa 0,0 l/m 1,3 km/h (1 Bft) W-SW 247 0 min 0,0 UV-I 4,1 C 4,7 C 1,9 km/h (1 Bft)
18.10.2009 06:07 5,1 C 9,1 C 4,8 C 5,0 C 4,7 C 0,0 C 93 % 98 % 0 % 1019,7 hPa 0,0 l/m 1,3 km/h (1 Bft) W-SW 247 0 min 0,0 UV-I 4,1 C 4,7 C 1,9 km/h (1 Bft)
18.10.2009 06:08 5,1 C 9,1 C 4,8 C 5,0 C 4,7 C 0,0 C 93 % 98 % 0 % 1019,7 hPa 0,0 l/m 1,3 km/h (1 Bft) W-SW 247 0 min 0,0 UV-I 4,1 C 4,7 C 1,9 km/h (1 Bft)
18.10.2009 06:10 5,1 C 9,1 C 4,8 C 5,0 C 4,7 C 0,0 C 93 % 98 % 0 % 1019,7 hPa 0,0 l/m 1,3 km/h (1 Bft) W-SW 247 0 min 0,0 UV-I 4,1 C 4,7 C 1,9 km/h (1 Bft)
18.10.2009 06:15 5,1 C 9,1 C 4,8 C 5,0 C 4,7 C 0,0 C 93 % 98 % 0 % 1019,7 hPa 0,0 l/m 0,8 km/h (0 Bft) SO 135 0 min 0,0 UV-I 4,1 C 4,7 C 0,0 km/h (0 Bft)
18.10.2009 06:20 5,1 C 9,1 C 4,8 C 5,0 C 4,8 C 0,0 C 93 % 98 % 0 % 1019,7 hPa 0,0 l/m 0,3 km/h (0 Bft) S-SO 157 0 min 0,0 UV-I 4,1 C 4,8 C 1,8 km/h (1 Bft)
18.10.2009 06:25 5,1 C 9,1 C 4,8 C 5,0 C 4,8 C 0,0 C 93 % 98 % 0 % 1019,8 hPa 0,0 l/m 0,5 km/h (0 Bft) SW 225 0 min 0,0 UV-I 4,1 C 4,8 C 3,2 km/h (1 Bft)
18.10.2009 06:30 5,1 C 9,1 C 4,8 C 5,0 C 4,8 C 0,0 C 93 % 98 % 0 % 1019,8 hPa 0,0 l/m 0,6 km/h (0 Bft) W-SW 247 0 min 0,0 UV-I 4,1 C 4,8 C 0,0 km/h (0 Bft)
18.10.2009 06:35 5,1 C 9,1 C 4,8 C 5,0 C 4,8 C 0,0 C 93 % 98 % 0 % 1019,8 hPa 0,0 l/m 1,0 km/h (0 Bft) W 270 0 min 0,0 UV-I 4,1 C 4,8 C 1,6 km/h (1 Bft)
18.10.2009 06:40 5,1 C 9,1 C 4,8 C 5,0 C 4,8 C 0,0 C 93 % 98 % 0 % 1019,8 hPa 0,0 l/m 1,6 km/h (1 Bft) W-SW 247 0 min 0,0 UV-I 4,1 C 4,8 C 3,4 km/h (1 Bft)
18.10.2009 06:45 5,1 C 9,1 C 4,8 C 5,0 C 4,8 C 0,0 C 93 % 98 % 0 % 1019,8 hPa 0,0 l/m 1,8 km/h (1 Bft) S 180 0 min 0,0 UV-I 4,1 C 4,8 C 2,7 km/h (1 Bft)
18.10.2009 06:50 5,1 C 9,1 C 4,8 C 5,0 C 4,8 C 0,0 C 93 % 98 % 0 % 1019,8 hPa 0,0 l/m 2,3 km/h (1 Bft) SW 225 0 min 0,0 UV-I 4,1 C 4,8 C 3,7 km/h (1 Bft)
18.10.2009 06:55 5,1 C 9,0 C 4,8 C 5,0 C 4,8 C 0,0 C 93 % 98 % 0 % 1019,8 hPa 0,0 l/m 2,6 km/h (1 Bft) O 90 0 min 0,0 UV-I 4,1 C 4,8 C 3,4 km/h (1 Bft)
18.10.2009 07:00 5,1 C 9,0 C 4,8 C 5,0 C 4,7 C 0,0 C 93 % 98 % 0 % 1019,8 hPa 0,0 l/m 2,6 km/h (1 Bft) W-SW 247 0 min 0,0 UV-I 4,1 C 4,7 C 8,9 km/h (2 Bft)
18.10.2009 07:10 5,1 C 9,0 C 4,8 C 5,0 C 4,8 C 0,0 C 93 % 98 % 0 % 1019,8 hPa 0,0 l/m 2,1 km/h (1 Bft) SW 225 0 min 0,0 UV-I 4,1 C 4,8 C 2,6 km/h (1 Bft)
18.10.2009 07:15 5,1 C 9,0 C 4,8 C 5,0 C 4,8 C 0,0 C 93 % 98 % 0 % 1019,8 hPa 0,0 l/m 1,3 km/h (1 Bft) W-SW 247 0 min 0,0 UV-I 4,1 C 4,8 C 0,0 km/h (0 Bft)
18.10.2009 07:20 5,1 C 9,0 C 4,8 C 5,0 C 4,8 C 0,0 C 93 % 98 % 0 % 1019,8 hPa 0,0 l/m 1,3 km/h (1 Bft) S-SW 202 0 min 0,0 UV-I 4,1 C 4,8 C 0,0 km/h (0 Bft)
18.10.2009 07:25 5,1 C 9,0 C 4,8 C 5,0 C 4,8 C 0,0 C 93 % 98 % 0 % 1019,6 hPa 0,0 l/m 1,6 km/h (1 Bft) SW 225 0 min 0,0 UV-I 4,1 C 4,8 C 0,0 km/h (0 Bft)
18.10.2009 07:30 5,1 C 9,0 C 4,8 C 5,0 C 4,8 C 0,0 C 93 % 98 % 0 % 1019,6 hPa 0,0 l/m 1,4 km/h (1 Bft) W-SW 247 0 min 0,0 UV-I 4,1 C 4,8 C 2,6 km/h (1 Bft)
18.10.2009 07:35 5,1 C 9,0 C 4,9 C 5,0 C 4,8 C 0,0 C 93 % 98 % 0 % 1019,6 hPa 0,0 l/m 1,9 km/h (1 Bft) SW 225 0 min 0,0 UV-I 4,1 C 4,8 C 3,1 km/h (1 Bft)
18.10.2009 07:40 5,1 C 9,1 C 4,9 C 5,0 C 4,8 C 0,0 C 93 % 98 % 0 % 1019,6 hPa 0,0 l/m 2,3 km/h (1 Bft) N-NO 22 0 min 0,0 UV-I 4,1 C 4,8 C 0,0 km/h (0 Bft)
18.10.2009 07:45 5,1 C 9,0 C 4,8 C 5,0 C 4,8 C 0,0 C 93 % 98 % 0 % 1019,6 hPa 0,0 l/m 2,1 km/h (1 Bft) SW 225 0 min 0,0 UV-I 4,1 C 4,8 C 2,6 km/h (1 Bft)
18.10.2009 07:50 5,1 C 9,0 C 4,8 C 5,0 C 4,8 C 0,0 C 93 % 98 % 0 % 1019,6 hPa 0,0 l/m 2,6 km/h (1 Bft) W-NW 292 0 min 0,0 UV-I 4,1 C 4,8 C 9,7 km/h (2 Bft)
18.10.2009 07:55 5,1 C 9,0 C 4,9 C 5,0 C 4,8 C 0,0 C 93 % 98 % 0 % 1019,6 hPa 0,0 l/m 2,7 km/h (1 Bft) W-SW 247 0 min 0,0 UV-I 4,1 C 4,8 C 3,4 km/h (1 Bft)
18.10.2009 08:00 5,1 C 9,0 C 4,8 C 5,0 C 4,7 C 0,0 C 93 % 98 % 0 % 1019,6 hPa 0,7 l/m 2,6 km/h (1 Bft) S 180 0 min 0,0 UV-I 4,1 C 4,7 C 3,5 km/h (1 Bft)
18.10.2009 08:10 5,1 C 9,0 C 4,9 C 5,0 C 4,8 C 0,0 C 93 % 98 % 0 % 1019,6 hPa 0,0 l/m 2,6 km/h (1 Bft) SW 225 0 min 0,0 UV-I 4,1 C 4,8 C 2,6 km/h (1 Bft)
18.10.2009 08:15 5,1 C 9,0 C 4,7 C 5,0 C 4,8 C 0,0 C 93 % 98 % 0 % 1019,6 hPa 0,0 l/m 2,7 km/h (1 Bft) NW 315 0 min 0,0 UV-I 4,1 C 4,8 C 5,1 km/h (1 Bft)
18.10.2009 08:20 5,1 C 9,0 C 4,8 C 4,9 C 4,6 C 0,0 C 93 % 98 % 0 % 1019,6 hPa 0,0 l/m 3,4 km/h (1 Bft) SW 225 0 min 0,0 UV-I 4,1 C 4,6 C 10,3 km/h (2 Bft)
18.10.2009 08:25 5,1 C 9,0 C 4,7 C 4,9 C 4,5 C 0,0 C 93 % 97 % 0 % 1019,6 hPa 0,0 l/m 3,4 km/h (1 Bft) S 180 0 min 0,0 UV-I 4,1 C 4,5 C 5,6 km/h (1 Bft)
18.10.2009 08:30 5,1 C 9,0 C 4,8 C 5,0 C 4,7 C 0,0 C 93 % 97 % 0 % 1019,6 hPa 0,0 l/m 3,1 km/h (1 Bft) SW 225 0 min 0,0 UV-I 4,1 C 4,7 C 4,8 km/h (1 Bft)
18.10.2009 08:35 5,1 C 9,0 C 4,7 C 4,9 C 4,6 C 0,0 C 92 % 97 % 0 % 1019,6 hPa 0,0 l/m 3,4 km/h (1 Bft) S-SO 157 0 min 0,0 UV-I 3,9 C 4,6 C 1,9 km/h (1 Bft)
18.10.2009 08:40 5,1 C 9,0 C 4,9 C 5,0 C 4,8 C 0,0 C 93 % 97 % 0 % 1019,6 hPa 0,0 l/m 2,6 km/h (1 Bft) SW 225 0 min 0,0 UV-I 4,1 C 4,8 C 7,7 km/h (2 Bft)
18.10.2009 08:45 5,1 C 9,0 C 4,8 C 5,0 C 4,8 C 0,0 C 93 % 97 % 0 % 1020,1 hPa 0,0 l/m 2,1 km/h (1 Bft) SW 225 0 min 0,0 UV-I 4,1 C 4,8 C 3,9 km/h (1 Bft)
18.10.2009 08:50 5,1 C 9,0 C 4,8 C 5,1 C 5,0 C 0,0 C 92 % 97 % 0 % 1020,1 hPa 0,0 l/m 2,4 km/h (1 Bft) S 180 0 min 0,0 UV-I 3,9 C 5,0 C 2,9 km/h (1 Bft)
18.10.2009 08:55 5,1 C 9,0 C 4,9 C 5,1 C 5,0 C 0,0 C 92 % 97 % 0 % 1020,1 hPa 0,0 l/m 2,6 km/h (1 Bft) W-SW 247 0 min 0,0 UV-I 3,9 C 5,0 C 5,0 km/h (1 Bft)
18.10.2009 09:00 5,2 C 9,0 C 4,9 C 5,1 C 5,0 C 0,0 C 92 % 97 % 0 % 1020,1 hPa 0,0 l/m 2,6 km/h (1 Bft) W 270 0 min 0,0 UV-I 4,0 C 5,0 C 7,6 km/h (2 Bft)
18.10.2009 09:06 5,1 C 9,0 C 4,8 C 5,1 C 5,0 C 0,0 C 92 % 97 % 0 % 1020,5 hPa 0,0 l/m 2,7 km/h (1 Bft) W-SW 247 0 min 0,0 UV-I 3,9 C 5,0 C 3,4 km/h (1 Bft)
18.10.2009 09:10 5,2 C 8,9 C 4,8 C 5,1 C 5,0 C 0,0 C 92 % 97 % 0 % 1020,5 hPa 0,0 l/m 3,2 km/h (1 Bft) S 180 0 min 0,0 UV-I 4,0 C 5,0 C 15,0 km/h (3 Bft)
18.10.2009 09:15 5,2 C 8,9 C 4,9 C 5,2 C 5,1 C 0,0 C 92 % 97 % 0 % 1020,5 hPa 0,0 l/m 2,9 km/h (1 Bft) W-SW 247 0 min 0,0 UV-I 4,0 C 5,1 C 1,9 km/h (1 Bft)
18.10.2009 09:20 5,2 C 8,9 C 4,8 C 5,2 C 5,2 C 0,0 C 92 % 97 % 0 % 1020,5 hPa 0,0 l/m 2,6 km/h (1 Bft) NW 315 0 min 0,0 UV-I 4,0 C 5,2 C 3,7 km/h (1 Bft)
18.10.2009 09:25 5,2 C 8,9 C 4,8 C 5,2 C 5,2 C 0,0 C 92 % 97 % 0 % 1020,1 hPa 0,0 l/m 2,4 km/h (1 Bft) SW 225 0 min 0,0 UV-I 4,0 C 5,2 C 2,7 km/h (1 Bft)
18.10.2009 09:30 5,2 C 8,9 C 4,8 C 5,2 C 5,2 C 0,0 C 92 % 97 % 0 % 1020,1 hPa 0,0 l/m 3,4 km/h (1 Bft) S-SO 157 0 min 0,0 UV-I 4,0 C 5,2 C 3,7 km/h (1 Bft)
18.10.2009 09:35 5,3 C 8,7 C 4,8 C 5,2 C 5,0 C 0,0 C 92 % 97 % 0 % 1020,1 hPa 0,0 l/m 3,9 km/h (1 Bft) W 270 0 min 0,0 UV-I 4,1 C 5,0 C 7,2 km/h (2 Bft)
18.10.2009 09:40 5,3 C 8,9 C 4,9 C 5,3 C 5,2 C 0,0 C 91 % 96 % 0 % 1020,1 hPa 0,0 l/m 3,7 km/h (1 Bft) S 180 0 min 0,0 UV-I 4,0 C 5,2 C 1,8 km/h (1 Bft)
18.10.2009 09:45 5,3 C 8,7 C 4,9 C 5,6 C 5,6 C 0,3 C 91 % 96 % 8 % 1020,1 hPa 0,0 l/m 3,2 km/h (1 Bft) S-SW 202 0 min 0,0 UV-I 4,0 C 5,6 C 5,6 km/h (1 Bft)
18.10.2009 09:50 5,3 C 8,9 C 4,9 C 5,9 C 5,9 C 0,6 C 91 % 96 % 16 % 1020,1 hPa 0,0 l/m 2,4 km/h (1 Bft) S 180 0 min 0,1 UV-I 4,0 C 5,9 C 3,9 km/h (1 Bft)
18.10.2009 09:55 5,5 C 8,9 C 5,0 C 5,8 C 5,8 C 0,3 C 91 % 96 % 8 % 1020,1 hPa 0,0 l/m 3,1 km/h (1 Bft) S 180 0 min 0,1 UV-I 4,2 C 5,8 C 2,4 km/h (1 Bft)
18.10.2009 10:00 5,5 C 8,7 C 5,1 C 6,0 C 6,0 C 0,5 C 91 % 97 % 13 % 1020,1 hPa 0,0 l/m 3,2 km/h (1 Bft) S 180 0 min 0,0 UV-I 4,2 C 6,0 C 5,0 km/h (1 Bft)
18.10.2009 10:06 5,4 C 9,0 C 5,1 C 5,6 C 5,6 C 0,2 C 91 % 97 % 5 % 1020,4 hPa 0,0 l/m 1,4 km/h (1 Bft) N-NO 22 0 min 0,0 UV-I 4,1 C 5,6 C 4,8 km/h (1 Bft)
18.10.2009 10:07 5,4 C 9,0 C 5,1 C 5,6 C 5,6 C 0,2 C 91 % 97 % 5 % 1020,4 hPa 0,0 l/m 1,4 km/h (1 Bft) N-NO 22 0 min 0,0 UV-I 4,1 C 5,6 C 4,8 km/h (1 Bft)
18.10.2009 10:10 5,4 C 9,0 C 5,1 C 5,6 C 5,6 C 0,2 C 91 % 97 % 5 % 1020,4 hPa 0,0 l/m 1,4 km/h (1 Bft) N-NO 22 0 min 0,0 UV-I 4,1 C 5,6 C 4,8 km/h (1 Bft)
18.10.2009 10:15 5,3 C 9,0 C 5,0 C 5,4 C 5,4 C 0,1 C 91 % 96 % 3 % 1020,4 hPa 0,0 l/m 1,1 km/h (1 Bft) SW 225 0 min 0,0 UV-I 4,0 C 5,4 C 1,6 km/h (1 Bft)
18.10.2009 10:20 5,5 C 9,0 C 5,1 C 5,5 C 5,5 C 0,0 C 91 % 97 % 0 % 1020,4 hPa 0,0 l/m 1,6 km/h (1 Bft) W-SW 247 0 min 0,1 UV-I 4,2 C 5,5 C 3,9 km/h (1 Bft)
18.10.2009 10:25 5,5 C 9,0 C 5,0 C 5,5 C 5,5 C 0,0 C 91 % 96 % 0 % 1020,7 hPa 0,0 l/m 1,8 km/h (1 Bft) W 270 0 min 0,1 UV-I 4,2 C 5,5 C 3,9 km/h (1 Bft)
18.10.2009 10:30 5,5 C 9,0 C 5,1 C 5,7 C 5,7 C 0,2 C 91 % 97 % 5 % 1020,7 hPa 0,0 l/m 1,4 km/h (1 Bft) W 270 0 min 0,1 UV-I 4,2 C 5,7 C 2,7 km/h (1 Bft)
18.10.2009 10:35 5,5 C 8,9 C 5,1 C 5,8 C 5,8 C 0,3 C 91 % 97 % 8 % 1020,7 hPa 0,0 l/m 2,3 km/h (1 Bft) O-NO 67 0 min 0,1 UV-I 4,2 C 5,8 C 1,8 km/h (1 Bft)
18.10.2009 10:40 5,5 C 8,9 C 5,1 C 5,8 C 5,8 C 0,3 C 91 % 97 % 8 % 1020,7 hPa 0,0 l/m 2,6 km/h (1 Bft) SW 225 0 min 0,1 UV-I 4,2 C 5,8 C 1,8 km/h (1 Bft)
18.10.2009 10:45 5,6 C 8,9 C 5,1 C 5,6 C 5,6 C 0,0 C 91 % 97 % 0 % 1020,8 hPa 0,0 l/m 1,9 km/h (1 Bft) O-NO 67 0 min 0,1 UV-I 4,2 C 5,6 C 0,0 km/h (0 Bft)
18.10.2009 10:50 5,5 C 9,0 C 5,1 C 5,5 C 5,5 C 0,0 C 91 % 97 % 0 % 1020,8 hPa 0,0 l/m 1,3 km/h (1 Bft) O-NO 67 0 min 0,0 UV-I 4,2 C 5,5 C 4,3 km/h (1 Bft)
18.10.2009 10:55 5,5 C 9,0 C 5,1 C 5,5 C 5,5 C 0,0 C 91 % 97 % 0 % 1020,8 hPa 0,0 l/m 0,8 km/h (0 Bft) S 180 0 min 0,0 UV-I 4,2 C 5,5 C 0,0 km/h (0 Bft)
18.10.2009 11:00 5,5 C 8,9 C 5,1 C 5,8 C 5,8 C 0,3 C 91 % 97 % 8 % 1020,8 hPa 0,0 l/m 1,4 km/h (1 Bft) S-SO 157 0 min 0,3 UV-I 4,2 C 5,8 C 1,9 km/h (1 Bft)
18.10.2009 11:10 5,5 C 8,9 C 5,2 C 6,0 C 6,0 C 0,5 C 91 % 97 % 13 % 1020,4 hPa 0,0 l/m 2,4 km/h (1 Bft) W-SW 247 0 min 0,2 UV-I 4,2 C 6,0 C 0,0 km/h (0 Bft)
18.10.2009 11:15 5,5 C 8,9 C 5,2 C 6,1 C 6,1 C 0,6 C 91 % 97 % 16 % 1020,4 hPa 0,0 l/m 1,8 km/h (1 Bft) NO 45 0 min 0,2 UV-I 4,2 C 6,1 C 1,8 km/h (1 Bft)
18.10.2009 11:20 5,6 C 8,8 C 5,2 C 5,9 C 5,9 C 0,3 C 91 % 97 % 8 % 1020,4 hPa 0,0 l/m 1,3 km/h (1 Bft) N-NO 22 0 min 0,0 UV-I 4,2 C 5,9 C 2,3 km/h (1 Bft)
18.10.2009 11:25 5,5 C 8,9 C 5,2 C 5,8 C 5,8 C 0,3 C 91 % 97 % 8 % 1020,8 hPa 0,0 l/m 1,6 km/h (1 Bft) NO 45 0 min 0,0 UV-I 4,2 C 5,8 C 0,0 km/h (0 Bft)
18.10.2009 11:30 5,7 C 8,8 C 5,2 C 6,0 C 6,0 C 0,3 C 91 % 97 % 8 % 1020,8 hPa 0,0 l/m 1,1 km/h (1 Bft) S-SO 157 0 min 0,3 UV-I 4,3 C 6,0 C 4,0 km/h (1 Bft)
18.10.2009 11:35 5,6 C 8,8 C 5,3 C 6,2 C 6,2 C 0,6 C 91 % 97 % 16 % 1020,8 hPa 0,0 l/m 1,1 km/h (1 Bft) O 90 0 min 0,3 UV-I 4,2 C 6,2 C 2,3 km/h (1 Bft)
18.10.2009 11:40 5,7 C 8,8 C 5,3 C 6,5 C 6,5 C 0,8 C 91 % 97 % 21 % 1020,8 hPa 0,0 l/m 1,3 km/h (1 Bft) W 270 0 min 0,4 UV-I 4,3 C 6,5 C 0,0 km/h (0 Bft)
18.10.2009 11:45 5,8 C 8,8 C 5,5 C 6,7 C 6,7 C 0,9 C 91 % 97 % 24 % 1020,3 hPa 0,0 l/m 1,0 km/h (0 Bft) SW 225 0 min 0,4 UV-I 4,4 C 6,7 C 0,0 km/h (0 Bft)
18.10.2009 11:50 5,9 C 8,8 C 5,5 C 7,0 C 7,0 C 1,1 C 91 % 97 % 29 % 1020,3 hPa 0,0 l/m 1,4 km/h (1 Bft) W-SW 247 0 min 0,5 UV-I 4,5 C 7,0 C 3,5 km/h (1 Bft)
18.10.2009 11:55 6,0 C 8,8 C 5,6 C 7,2 C 7,2 C 1,2 C 91 % 97 % 32 % 1020,3 hPa 0,0 l/m 1,9 km/h (1 Bft) W 270 0 min 0,5 UV-I 4,6 C 7,2 C 6,1 km/h (2 Bft)
18.10.2009 12:00 6,1 C 8,8 C 5,6 C 7,5 C 7,5 C 1,4 C 91 % 97 % 37 % 1020,3 hPa 0,0 l/m 1,6 km/h (1 Bft) N-NO 22 0 min 0,5 UV-I 4,7 C 7,5 C 2,3 km/h (1 Bft)
18.10.2009 12:10 6,1 C 8,8 C 5,7 C 7,7 C 7,7 C 1,6 C 90 % 97 % 42 % 1020,3 hPa 0,0 l/m 2,1 km/h (1 Bft) S 180 0 min 0,4 UV-I 4,6 C 7,7 C 1,8 km/h (1 Bft)
18.10.2009 12:15 6,1 C 8,8 C 5,9 C 7,7 C 7,7 C 1,6 C 90 % 96 % 42 % 1020,3 hPa 0,0 l/m 2,3 km/h (1 Bft) W-SW 247 0 min 0,4 UV-I 4,6 C 7,7 C 3,7 km/h (1 Bft)
18.10.2009 12:20 6,3 C 8,9 C 5,9 C 7,8 C 7,8 C 1,5 C 90 % 96 % 39 % 1020,3 hPa 0,0 l/m 2,3 km/h (1 Bft) W 270 0 min 0,5 UV-I 4,8 C 7,8 C 3,2 km/h (1 Bft)
18.10.2009 12:25 6,2 C 8,7 C 5,9 C 8,0 C 8,0 C 1,8 C 90 % 96 % 47 % 1020,5 hPa 0,0 l/m 2,1 km/h (1 Bft) NW 315 0 min 0,5 UV-I 4,7 C 8,0 C 4,5 km/h (1 Bft)
18.10.2009 12:30 6,3 C 8,8 C 5,9 C 7,7 C 7,7 C 1,4 C 90 % 95 % 37 % 1020,5 hPa 0,0 l/m 2,7 km/h (1 Bft) W-SW 247 0 min 0,3 UV-I 4,8 C 7,7 C 6,4 km/h (2 Bft)
18.10.2009 12:35 6,2 C 8,7 C 5,8 C 7,5 C 7,5 C 1,3 C 90 % 95 % 34 % 1020,5 hPa 0,0 l/m 3,1 km/h (1 Bft) S 180 0 min 0,3 UV-I 4,7 C 7,5 C 0,0 km/h (0 Bft)
18.10.2009 12:40 6,3 C 8,7 C 5,8 C 7,3 C 7,3 C 1,0 C 90 % 95 % 26 % 1020,5 hPa 0,0 l/m 1,8 km/h (1 Bft) W 270 0 min 0,2 UV-I 4,8 C 7,3 C 3,7 km/h (1 Bft)
18.10.2009 12:45 6,3 C 8,7 C 5,9 C 7,3 C 7,3 C 1,0 C 90 % 95 % 26 % 1020,2 hPa 0,0 l/m 1,4 km/h (1 Bft) N-NW 337 0 min 0,2 UV-I 4,8 C 7,3 C 4,3 km/h (1 Bft)
18.10.2009 12:50 6,3 C 8,8 C 5,9 C 7,4 C 7,4 C 1,1 C 89 % 95 % 29 % 1020,2 hPa 0,0 l/m 2,7 km/h (1 Bft) W-SW 247 0 min 0,5 UV-I 4,6 C 7,4 C 3,1 km/h (1 Bft)
18.10.2009 12:55 6,4 C 8,7 C 6,0 C 7,6 C 7,6 C 1,2 C 89 % 96 % 32 % 1020,2 hPa 0,0 l/m 2,1 km/h (1 Bft) W 270 0 min 0,5 UV-I 4,7 C 7,6 C 0,0 km/h (0 Bft)
18.10.2009 13:00 6,4 C 8,7 C 6,0 C 7,8 C 7,8 C 1,4 C 88 % 95 % 37 % 1020,2 hPa 0,0 l/m 1,6 km/h (1 Bft) SO 135 0 min 0,5 UV-I 4,6 C 7,8 C 2,1 km/h (1 Bft)
18.10.2009 13:10 6,4 C 8,7 C 6,0 C 7,7 C 7,7 C 1,3 C 88 % 94 % 34 % 1020,6 hPa 0,0 l/m 2,6 km/h (1 Bft) S 180 0 min 0,4 UV-I 4,6 C 7,7 C 9,0 km/h (2 Bft)
18.10.2009 13:15 6,4 C 8,7 C 6,0 C 7,7 C 7,7 C 1,3 C 88 % 94 % 34 % 1020,6 hPa 0,0 l/m 3,2 km/h (1 Bft) S-SO 157 0 min 0,4 UV-I 4,6 C 7,7 C 1,6 km/h (1 Bft)
18.10.2009 13:20 6,5 C 8,7 C 6,0 C 7,8 C 7,8 C 1,3 C 88 % 95 % 34 % 1020,6 hPa 0,0 l/m 2,7 km/h (1 Bft) W-NW 292 0 min 0,6 UV-I 4,7 C 7,8 C 0,0 km/h (0 Bft)
18.10.2009 13:25 6,5 C 8,6 C 6,1 C 8,0 C 8,0 C 1,5 C 88 % 95 % 39 % 1020,6 hPa 0,0 l/m 2,3 km/h (1 Bft) W-SW 247 0 min 0,6 UV-I 4,7 C 8,0 C 2,1 km/h (1 Bft)
18.10.2009 13:30 6,5 C 8,7 C 6,1 C 8,2 C 8,2 C 1,7 C 88 % 95 % 45 % 1020,6 hPa 0,0 l/m 1,4 km/h (1 Bft) SW 225 0 min 0,5 UV-I 4,7 C 8,2 C 2,6 km/h (1 Bft)
18.10.2009 13:35 6,5 C 8,6 C 6,2 C 8,2 C 8,2 C 1,7 C 88 % 95 % 45 % 1020,6 hPa 0,0 l/m 1,4 km/h (1 Bft) SO 135 0 min 0,5 UV-I 4,7 C 8,2 C 0,0 km/h (0 Bft)
18.10.2009 13:40 6,7 C 8,7 C 6,1 C 8,0 C 8,0 C 1,3 C 88 % 94 % 34 % 1020,6 hPa 0,0 l/m 3,1 km/h (1 Bft) S 180 0 min 0,4 UV-I 4,9 C 8,0 C 5,0 km/h (1 Bft)
18.10.2009 13:45 6,7 C 8,7 C 6,1 C 7,8 C 7,8 C 1,1 C 87 % 94 % 29 % 1020,5 hPa 0,0 l/m 3,1 km/h (1 Bft) S 180 0 min 0,4 UV-I 4,7 C 7,8 C 1,9 km/h (1 Bft)
18.10.2009 13:50 6,6 C 8,7 C 6,1 C 7,7 C 7,7 C 1,1 C 87 % 94 % 29 % 1020,5 hPa 0,0 l/m 2,3 km/h (1 Bft) W-SW 247 0 min 0,4 UV-I 4,6 C 7,7 C 6,0 km/h (2 Bft)
18.10.2009 13:55 6,7 C 8,6 C 6,3 C 7,7 C 7,7 C 1,0 C 87 % 94 % 26 % 1020,5 hPa 0,0 l/m 2,4 km/h (1 Bft) NO 45 0 min 0,4 UV-I 4,7 C 7,7 C 5,6 km/h (1 Bft)
18.10.2009 14:00 6,7 C 8,6 C 6,3 C 8,0 C 8,0 C 1,3 C 87 % 95 % 34 % 1020,5 hPa 0,0 l/m 2,6 km/h (1 Bft) SW 225 0 min 0,5 UV-I 4,7 C 8,0 C 3,4 km/h (1 Bft)
18.10.2009 14:10 6,8 C 8,7 C 6,5 C 8,7 C 8,7 C 1,9 C 87 % 95 % 50 % 1020,7 hPa 0,0 l/m 1,8 km/h (1 Bft) S 180 0 min 0,4 UV-I 4,8 C 8,7 C 0,0 km/h (0 Bft)
18.10.2009 14:15 6,9 C 8,7 C 6,5 C 8,8 C 8,8 C 1,9 C 87 % 94 % 50 % 1020,7 hPa 0,0 l/m 2,1 km/h (1 Bft) W 270 0 min 0,4 UV-I 4,9 C 8,8 C 3,1 km/h (1 Bft)
18.10.2009 14:20 6,9 C 8,6 C 6,6 C 8,8 C 8,8 C 1,9 C 87 % 94 % 50 % 1020,7 hPa 0,0 l/m 1,6 km/h (1 Bft) W 270 0 min 0,2 UV-I 4,9 C 8,8 C 4,8 km/h (1 Bft)
18.10.2009 14:25 6,9 C 8,6 C 6,5 C 8,7 C 8,7 C 1,8 C 86 % 94 % 47 % 1020,5 hPa 0,0 l/m 1,6 km/h (1 Bft) SW 225 0 min 0,2 UV-I 4,7 C 8,7 C 2,4 km/h (1 Bft)
18.10.2009 14:30 6,8 C 8,6 C 6,3 C 8,4 C 8,4 C 1,6 C 82 % 90 % 42 % 1020,5 hPa 0,0 l/m 2,9 km/h (1 Bft) S 180 0 min 0,3 UV-I 3,9 C 8,4 C 5,5 km/h (1 Bft)
18.10.2009 14:35 6,8 C 8,6 C 6,1 C 8,0 C 8,0 C 1,2 C 82 % 91 % 32 % 1020,5 hPa 0,0 l/m 2,9 km/h (1 Bft) S 180 0 min 0,3 UV-I 3,9 C 8,0 C 5,3 km/h (1 Bft)
18.10.2009 14:40 6,6 C 8,7 C 6,1 C 7,3 C 7,3 C 0,7 C 84 % 92 % 18 % 1020,5 hPa 0,0 l/m 2,4 km/h (1 Bft) S-SW 202 0 min 0,2 UV-I 4,1 C 7,3 C 3,7 km/h (1 Bft)
18.10.2009 14:45 6,6 C 8,7 C 6,0 C 7,0 C 7,0 C 0,4 C 84 % 93 % 11 % 1020,3 hPa 0,0 l/m 1,9 km/h (1 Bft) NW 315 0 min 0,2 UV-I 4,1 C 7,0 C 0,0 km/h (0 Bft)
18.10.2009 14:50 6,5 C 8,7 C 6,0 C 6,8 C 6,8 C 0,3 C 85 % 94 % 8 % 1020,3 hPa 0,0 l/m 1,0 km/h (0 Bft) O 90 0 min 0,3 UV-I 4,2 C 6,8 C 0,0 km/h (0 Bft)
18.10.2009 14:55 6,7 C 8,7 C 6,2 C 6,8 C 6,8 C 0,1 C 85 % 94 % 3 % 1020,3 hPa 0,0 l/m 0,2 km/h (0 Bft) NW 315 0 min 0,3 UV-I 4,4 C 6,8 C 0,0 km/h (0 Bft)
18.10.2009 15:00 6,7 C 8,7 C 6,9 C 7,3 C 7,3 C 0,6 C 86 % 95 % 16 % 1020,3 hPa 0,0 l/m 0,3 km/h (0 Bft) S-SO 157 0 min 0,3 UV-I 4,5 C 7,3 C 0,0 km/h (0 Bft)
18.10.2009 15:10 6,8 C 8,6 C 7,7 C 8,9 C 8,9 C 2,1 C 85 % 93 % 55 % 1020,5 hPa 0,0 l/m 0,6 km/h (0 Bft) NO 45 0 min 0,3 UV-I 4,5 C 8,9 C 0,0 km/h (0 Bft)
18.10.2009 15:15 6,9 C 8,7 C 8,1 C 9,1 C 9,1 C 2,2 C 85 % 92 % 58 % 1020,5 hPa 0,0 l/m 0,6 km/h (0 Bft) O-SO 112 0 min 0,3 UV-I 4,6 C 9,1 C 0,0 km/h (0 Bft)
18.10.2009 15:20 7,1 C 8,7 C 9,1 C 9,5 C 9,5 C 2,4 C 84 % 92 % 63 % 1020,5 hPa 0,0 l/m 0,8 km/h (0 Bft) S 180 0 min 0,3 UV-I 4,6 C 9,5 C 4,3 km/h (1 Bft)
18.10.2009 15:25 7,0 C 8,7 C 9,1 C 10,1 C 10,1 C 3,1 C 84 % 89 % 82 % 1020,7 hPa 0,0 l/m 1,6 km/h (1 Bft) S-SW 202 0 min 0,3 UV-I 4,5 C 10,1 C 5,1 km/h (1 Bft)
18.10.2009 15:30 7,2 C 8,6 C 9,1 C 9,9 C 9,9 C 2,7 C 83 % 88 % 71 % 1020,7 hPa 0,0 l/m 4,0 km/h (1 Bft) S-SW 202 0 min 0,2 UV-I 4,5 C 9,9 C 8,7 km/h (2 Bft)
18.10.2009 15:35 7,5 C 8,7 C 9,3 C 10,8 C 10,8 C 3,3 C 83 % 86 % 87 % 1020,7 hPa 0,0 l/m 4,7 km/h (1 Bft) SW 225 5 min 0,2 UV-I 4,8 C 10,8 C 4,2 km/h (1 Bft)
18.10.2009 15:40 7,6 C 8,7 C 9,9 C 12,5 C 12,5 C 4,9 C 82 % 86 % 100 % 1020,7 hPa 0,0 l/m 4,0 km/h (1 Bft) S-SW 202 5 min 0,2 UV-I 4,7 C 12,5 C 7,9 km/h (2 Bft)
18.10.2009 15:45 7,7 C 8,7 C 10,0 C 13,1 C 13,1 C 5,4 C 81 % 85 % 100 % 1020,2 hPa 0,0 l/m 3,9 km/h (1 Bft) S 180 5 min 0,2 UV-I 4,7 C 13,1 C 7,7 km/h (2 Bft)
18.10.2009 15:50 7,8 C 8,6 C 10,6 C 13,6 C 13,6 C 5,8 C 81 % 84 % 100 % 1020,2 hPa 0,0 l/m 4,3 km/h (1 Bft) W-SW 247 5 min 0,1 UV-I 4,7 C 13,6 C 7,2 km/h (2 Bft)
18.10.2009 15:55 7,9 C 8,6 C 10,5 C 14,0 C 14,0 C 6,1 C 80 % 84 % 100 % 1020,2 hPa 0,0 l/m 3,5 km/h (1 Bft) W 270 5 min 0,1 UV-I 4,7 C 14,0 C 0,0 km/h (0 Bft)
18.10.2009 16:00 8,0 C 8,7 C 10,5 C 14,0 C 14,0 C 6,0 C 78 % 84 % 100 % 1020,2 hPa 0,0 l/m 3,1 km/h (1 Bft) O-NO 67 5 min 0,0 UV-I 4,4 C 14,0 C 7,6 km/h (2 Bft)
18.10.2009 16:10 8,1 C 8,7 C 9,5 C 13,7 C 13,7 C 5,6 C 78 % 84 % 100 % 1020,4 hPa 0,0 l/m 3,2 km/h (1 Bft) O-NO 67 10 min 0,0 UV-I 4,5 C 13,7 C 4,2 km/h (1 Bft)
18.10.2009 16:15 8,1 C 8,7 C 9,2 C 13,8 C 13,8 C 5,7 C 78 % 86 % 100 % 1020,4 hPa 0,0 l/m 2,4 km/h (1 Bft) NW 315 5 min 0,0 UV-I 4,5 C 13,8 C 2,4 km/h (1 Bft)
18.10.2009 16:20 8,0 C 8,7 C 8,8 C 13,6 C 13,6 C 5,6 C 78 % 86 % 100 % 1020,4 hPa 0,0 l/m 2,7 km/h (1 Bft) W 270 5 min 0,0 UV-I 4,4 C 13,6 C 5,5 km/h (1 Bft)
18.10.2009 16:25 7,8 C 8,7 C 8,4 C 12,6 C 12,6 C 4,8 C 77 % 83 % 100 % 1021,0 hPa 0,0 l/m 3,1 km/h (1 Bft) W-SW 247 5 min 0,0 UV-I 4,0 C 12,6 C 4,8 km/h (1 Bft)
18.10.2009 16:40 7,4 C 8,7 C 7,5 C 8,2 C 8,2 C 0,8 C 80 % 85 % 21 % 1021,0 hPa 0,0 l/m 3,2 km/h (1 Bft) SO 135 0 min 0,0 UV-I 4,2 C 8,2 C 5,5 km/h (1 Bft)
18.10.2009 16:41 7,4 C 8,7 C 7,5 C 8,0 C 8,0 C 0,6 C 80 % 86 % 16 % 1020,8 hPa 0,0 l/m 3,1 km/h (1 Bft) S-SW 202 0 min 0,0 UV-I 4,2 C 8,0 C 4,8 km/h (1 Bft)
18.10.2009 16:42 7,4 C 8,7 C 7,5 C 8,0 C 8,0 C 0,6 C 80 % 86 % 16 % 1020,8 hPa 0,0 l/m 3,1 km/h (1 Bft) S-SW 202 0 min 0,0 UV-I 4,2 C 8,0 C 4,8 km/h (1 Bft)
18.10.2009 16:43 7,4 C 8,7 C 7,5 C 8,0 C 8,0 C 0,6 C 80 % 86 % 16 % 1020,8 hPa 0,0 l/m 3,1 km/h (1 Bft) S-SW 202 0 min 0,0 UV-I 4,2 C 8,0 C 4,8 km/h (1 Bft)
18.10.2009 16:44 7,4 C 8,7 C 7,5 C 8,0 C 8,0 C 0,6 C 80 % 86 % 16 % 1020,8 hPa 0,0 l/m 3,1 km/h (1 Bft) S-SW 202 0 min 0,0 UV-I 4,2 C 8,0 C 4,8 km/h (1 Bft)
18.10.2009 16:46 7,5 C 8,7 C 7,3 C 7,9 C 7,9 C 0,4 C 80 % 86 % 11 % 1020,8 hPa 0,0 l/m 3,4 km/h (1 Bft) W-SW 247 0 min 0,0 UV-I 4,3 C 7,9 C 4,2 km/h (1 Bft)
18.10.2009 16:47 7,5 C 8,7 C 7,3 C 7,9 C 7,9 C 0,4 C 80 % 86 % 11 % 1020,8 hPa 0,0 l/m 3,4 km/h (1 Bft) W-SW 247 0 min 0,0 UV-I 4,3 C 7,9 C 4,2 km/h (1 Bft)
18.10.2009 16:50 7,5 C 8,7 C 7,3 C 7,9 C 7,9 C 0,4 C 80 % 86 % 11 % 1020,8 hPa 0,0 l/m 3,4 km/h (1 Bft) W-SW 247 0 min 0,0 UV-I 4,3 C 7,9 C 4,2 km/h (1 Bft)
18.10.2009 16:55 7,5 C 8,7 C 7,3 C 7,9 C 7,9 C 0,4 C 80 % 86 % 11 % 1020,8 hPa 0,0 l/m 3,5 km/h (1 Bft) W-SW 247 0 min 0,0 UV-I 4,3 C 7,9 C 5,0 km/h (1 Bft)
18.10.2009 17:00 7,5 C 8,7 C 7,2 C 7,5 C 7,5 C 0,0 C 81 % 87 % 0 % 1020,8 hPa 0,0 l/m 4,2 km/h (1 Bft) W-SW 247 0 min 0,0 UV-I 4,5 C 7,5 C 4,3 km/h (1 Bft)
18.10.2009 17:06 7,2 C 8,7 C 6,9 C 7,1 C 7,0 C 0,0 C 82 % 88 % 0 % 1020,6 hPa 0,0 l/m 4,3 km/h (1 Bft) W-SW 247 0 min 0,0 UV-I 4,3 C 7,0 C 4,3 km/h (1 Bft)
18.10.2009 17:10 7,2 C 8,7 C 6,9 C 7,1 C 7,0 C 0,0 C 82 % 88 % 0 % 1020,6 hPa 0,0 l/m 4,3 km/h (1 Bft) W-SW 247 0 min 0,0 UV-I 4,3 C 7,0 C 4,3 km/h (1 Bft)
18.10.2009 17:15 7,3 C 8,7 C 6,8 C 7,2 C 7,0 C 0,0 C 83 % 88 % 0 % 1020,6 hPa 0,0 l/m 4,0 km/h (1 Bft) W-SW 247 0 min 0,0 UV-I 4,6 C 7,0 C 3,2 km/h (1 Bft)
18.10.2009 17:20 7,1 C 8,7 C 6,7 C 7,0 C 6,8 C 0,0 C 83 % 88 % 0 % 1020,6 hPa 0,0 l/m 3,9 km/h (1 Bft) SW 225 0 min 0,0 UV-I 4,4 C 6,8 C 3,7 km/h (1 Bft)
18.10.2009 17:25 7,1 C 8,7 C 6,6 C 7,0 C 6,9 C 0,0 C 83 % 89 % 0 % 1020,7 hPa 0,0 l/m 3,4 km/h (1 Bft) W-SW 247 0 min 0,0 UV-I 4,4 C 6,9 C 2,7 km/h (1 Bft)
18.10.2009 17:30 7,1 C 8,7 C 6,5 C 7,0 C 6,7 C 0,0 C 83 % 89 % 0 % 1020,7 hPa 0,0 l/m 3,1 km/h (1 Bft) S 180 0 min 0,0 UV-I 4,4 C 6,7 C 5,5 km/h (1 Bft)
18.10.2009 17:35 6,9 C 8,7 C 6,5 C 6,8 C 6,7 C 0,0 C 83 % 89 % 0 % 1020,7 hPa 0,0 l/m 3,2 km/h (1 Bft) SW 225 0 min 0,0 UV-I 4,2 C 6,7 C 4,0 km/h (1 Bft)
18.10.2009 17:40 6,9 C 8,7 C 6,5 C 6,8 C 6,5 C 0,0 C 83 % 90 % 0 % 1020,7 hPa 0,0 l/m 3,2 km/h (1 Bft) SW 225 0 min 0,0 UV-I 4,2 C 6,5 C 4,0 km/h (1 Bft)
18.10.2009 17:45 6,9 C 8,7 C 6,4 C 6,7 C 6,3 C 0,0 C 83 % 89 % 0 % 1020,7 hPa 0,0 l/m 3,2 km/h (1 Bft) SW 225 0 min 0,0 UV-I 4,2 C 6,3 C 3,7 km/h (1 Bft)
18.10.2009 17:50 6,7 C 8,8 C 6,3 C 6,5 C 6,0 C 0,0 C 84 % 90 % 0 % 1020,7 hPa 0,0 l/m 2,9 km/h (1 Bft) SW 225 0 min 0,0 UV-I 4,2 C 6,0 C 1,9 km/h (1 Bft)
18.10.2009 17:55 6,7 C 8,8 C 6,3 C 6,4 C 5,7 C 0,0 C 84 % 90 % 0 % 1020,7 hPa 0,0 l/m 2,4 km/h (1 Bft) SW 225 0 min 0,0 UV-I 4,2 C 5,7 C 1,8 km/h (1 Bft)
18.10.2009 18:00 6,7 C 8,8 C 6,0 C 6,2 C 5,3 C 0,0 C 84 % 89 % 0 % 1020,7 hPa 0,0 l/m 1,8 km/h (1 Bft) W-SW 247 0 min 0,0 UV-I 4,2 C 5,3 C 2,4 km/h (1 Bft)
18.10.2009 18:06 6,5 C 8,8 C 5,9 C 6,0 C 5,0 C 0,0 C 85 % 90 % 0 % 1021,3 hPa 0,0 l/m 1,4 km/h (1 Bft) SW 225 0 min 0,0 UV-I 4,2 C 5,0 C 1,9 km/h (1 Bft)
18.10.2009 18:07 6,5 C 8,8 C 5,9 C 6,0 C 5,0 C 0,0 C 85 % 90 % 0 % 1021,3 hPa 0,0 l/m 1,4 km/h (1 Bft) SW 225 0 min 0,0 UV-I 4,2 C 5,0 C 1,9 km/h (1 Bft)
18.10.2009 18:08 6,5 C 8,8 C 5,9 C 6,0 C 5,0 C 0,0 C 85 % 90 % 0 % 1021,3 hPa 0,0 l/m 1,4 km/h (1 Bft) SW 225 0 min 0,0 UV-I 4,2 C 5,0 C 1,9 km/h (1 Bft)
18.10.2009 18:10 6,5 C 8,8 C 5,9 C 6,0 C 5,0 C 0,0 C 85 % 90 % 0 % 1021,3 hPa 0,0 l/m 1,4 km/h (1 Bft) SW 225 0 min 0,0 UV-I 4,2 C 5,0 C 1,9 km/h (1 Bft)
18.10.2009 18:15 6,4 C 8,8 C 5,8 C 5,9 C 4,8 C 0,0 C 85 % 91 % 0 % 1021,3 hPa 0,0 l/m 1,1 km/h (1 Bft) S 180 0 min 0,0 UV-I 4,1 C 4,8 C 1,6 km/h (1 Bft)
18.10.2009 18:20 6,4 C 8,9 C 5,8 C 5,8 C 4,7 C 0,0 C 85 % 91 % 0 % 1021,3 hPa 0,0 l/m 1,6 km/h (1 Bft) W-SW 247 0 min 0,0 UV-I 4,1 C 4,7 C 0,0 km/h (0 Bft)
18.10.2009 18:25 6,3 C 8,9 C 5,7 C 5,8 C 4,7 C 0,0 C 85 % 91 % 0 % 1021,2 hPa 0,0 l/m 1,4 km/h (1 Bft) S 180 0 min 0,0 UV-I 4,0 C 4,7 C 0,0 km/h (0 Bft)
18.10.2009 18:30 6,3 C 9,0 C 5,7 C 5,8 C 4,7 C 0,0 C 86 % 91 % 0 % 1021,2 hPa 0,0 l/m 0,2 km/h (0 Bft) SW 225 0 min 0,0 UV-I 4,1 C 4,7 C 0,0 km/h (0 Bft)
18.10.2009 18:35 6,2 C 9,0 C 5,6 C 5,7 C 4,6 C 0,0 C 86 % 92 % 0 % 1021,2 hPa 0,0 l/m 0,2 km/h (0 Bft) W 270 0 min 0,0 UV-I 4,0 C 4,6 C 1,6 km/h (1 Bft)
18.10.2009 18:40 6,1 C 9,0 C 5,6 C 5,6 C 4,6 C 0,0 C 86 % 92 % 0 % 1021,2 hPa 0,0 l/m 0,2 km/h (0 Bft) SW 225 0 min 0,0 UV-I 3,9 C 4,6 C 0,0 km/h (0 Bft)
18.10.2009 18:45 6,1 C 9,0 C 5,6 C 5,6 C 4,5 C 0,0 C 86 % 92 % 0 % 1021,2 hPa 0,0 l/m 0,2 km/h (0 Bft) SW 225 0 min 0,0 UV-I 3,9 C 4,5 C 0,0 km/h (0 Bft)
18.10.2009 18:50 6,0 C 9,0 C 5,5 C 5,4 C 4,3 C 0,0 C 86 % 92 % 0 % 1021,2 hPa 0,0 l/m 0,3 km/h (0 Bft) W-SW 247 0 min 0,0 UV-I 3,8 C 4,3 C 0,0 km/h (0 Bft)
18.10.2009 18:55 6,0 C 9,0 C 5,4 C 5,4 C 4,2 C 0,0 C 86 % 93 % 0 % 1021,2 hPa 0,0 l/m 0,3 km/h (0 Bft) SW 225 0 min 0,0 UV-I 3,8 C 4,2 C 0,0 km/h (0 Bft)
18.10.2009 19:00 5,7 C 9,0 C 5,2 C 5,1 C 3,9 C 0,0 C 87 % 93 % 0 % 1021,2 hPa 0,0 l/m 0,0 km/h (0 Bft) SW 225 0 min 0,0 UV-I 3,7 C 3,9 C 0,0 km/h (0 Bft)
18.10.2009 19:10 5,7 C 9,1 C 5,3 C 5,0 C 3,7 C 0,0 C 88 % 93 % 0 % 1021,6 hPa 0,0 l/m 0,2 km/h (0 Bft) S-SW 202 0 min 0,0 UV-I 3,9 C 3,7 C 2,4 km/h (1 Bft)
18.10.2009 19:15 5,7 C 9,0 C 5,3 C 5,1 C 3,8 C 0,0 C 88 % 93 % 0 % 1021,6 hPa 0,0 l/m 0,3 km/h (0 Bft) S-SW 202 0 min 0,0 UV-I 3,9 C 3,8 C 0,0 km/h (0 Bft)
18.10.2009 19:20 5,7 C 9,1 C 5,2 C 5,1 C 3,8 C 0,0 C 88 % 93 % 0 % 1021,6 hPa 0,0 l/m 0,3 km/h (0 Bft) O-SO 112 0 min 0,0 UV-I 3,9 C 3,8 C 0,0 km/h (0 Bft)
18.10.2009 19:25 5,6 C 9,1 C 5,2 C 5,0 C 3,7 C 0,0 C 88 % 93 % 0 % 1021,5 hPa 0,0 l/m 0,0 km/h (0 Bft) S-SO 157 0 min 0,0 UV-I 3,8 C 3,7 C 0,0 km/h (0 Bft)
18.10.2009 19:30 5,7 C 9,1 C 5,1 C 5,0 C 3,6 C 0,0 C 88 % 93 % 0 % 1021,5 hPa 0,0 l/m 0,2 km/h (0 Bft) S-SW 202 0 min 0,0 UV-I 3,9 C 3,6 C 0,0 km/h (0 Bft)
18.10.2009 19:35 5,6 C 9,1 C 5,1 C 4,9 C 3,6 C 0,0 C 88 % 94 % 0 % 1021,5 hPa 0,0 l/m 0,2 km/h (0 Bft) S-SW 202 0 min 0,0 UV-I 3,8 C 3,6 C 0,0 km/h (0 Bft)
18.10.2009 19:40 5,6 C 9,1 C 5,1 C 5,0 C 3,8 C 0,0 C 89 % 94 % 0 % 1021,5 hPa 0,0 l/m 0,2 km/h (0 Bft) S 180 0 min 0,0 UV-I 3,9 C 3,8 C 0,0 km/h (0 Bft)
18.10.2009 19:45 5,5 C 9,1 C 5,1 C 4,9 C 3,7 C 0,0 C 88 % 94 % 0 % 1021,4 hPa 0,0 l/m 0,2 km/h (0 Bft) SW 225 0 min 0,0 UV-I 3,7 C 3,7 C 0,0 km/h (0 Bft)
18.10.2009 19:50 5,5 C 9,1 C 5,1 C 4,9 C 3,7 C 0,0 C 89 % 94 % 0 % 1021,4 hPa 0,0 l/m 0,5 km/h (0 Bft) W-SW 247 0 min 0,0 UV-I 3,8 C 3,7 C 3,4 km/h (1 Bft)
18.10.2009 19:55 5,5 C 9,1 C 5,0 C 4,9 C 3,8 C 0,0 C 89 % 94 % 0 % 1021,4 hPa 0,0 l/m 1,0 km/h (0 Bft) SW 225 0 min 0,0 UV-I 3,8 C 3,8 C 1,6 km/h (1 Bft)
18.10.2009 20:00 5,5 C 9,1 C 5,1 C 4,9 C 3,8 C 0,0 C 89 % 94 % 0 % 1021,4 hPa 0,0 l/m 1,3 km/h (1 Bft) W-SW 247 0 min 0,0 UV-I 3,8 C 3,8 C 2,7 km/h (1 Bft)
18.10.2009 20:06 5,5 C 9,0 C 4,9 C 4,9 C 3,8 C 0,0 C 89 % 94 % 0 % 1021,5 hPa 0,0 l/m 0,8 km/h (0 Bft) SW 225 0 min 0,0 UV-I 3,8 C 3,8 C 0,0 km/h (0 Bft)
18.10.2009 20:07 5,5 C 9,0 C 4,9 C 4,9 C 3,8 C 0,0 C 89 % 94 % 0 % 1021,5 hPa 0,0 l/m 0,8 km/h (0 Bft) SW 225 0 min 0,0 UV-I 3,8 C 3,8 C 0,0 km/h (0 Bft)
18.10.2009 20:10 5,5 C 9,0 C 4,9 C 4,9 C 3,8 C 0,0 C 89 % 94 % 0 % 1021,5 hPa 0,0 l/m 0,8 km/h (0 Bft) SW 225 0 min 0,0 UV-I 3,8 C 3,8 C 0,0 km/h (0 Bft)
18.10.2009 20:15 5,5 C 9,0 C 4,9 C 4,9 C 3,7 C 0,0 C 89 % 94 % 0 % 1021,5 hPa 0,0 l/m 0,5 km/h (0 Bft) S 180 0 min 0,0 UV-I 3,8 C 3,7 C 2,4 km/h (1 Bft)
18.10.2009 20:20 5,4 C 9,0 C 4,9 C 4,9 C 3,8 C 0,0 C 89 % 94 % 0 % 1021,5 hPa 0,0 l/m 1,4 km/h (1 Bft) S 180 0 min 0,0 UV-I 3,7 C 3,8 C 2,9 km/h (1 Bft)
18.10.2009 20:25 5,4 C 9,0 C 4,9 C 4,9 C 3,8 C 0,0 C 89 % 94 % 0 % 1021,7 hPa 0,0 l/m 2,3 km/h (1 Bft) S 180 0 min 0,0 UV-I 3,7 C 3,8 C 3,4 km/h (1 Bft)
18.10.2009 20:30 5,4 C 9,0 C 4,9 C 4,9 C 4,0 C 0,0 C 89 % 94 % 0 % 1021,7 hPa 0,0 l/m 2,3 km/h (1 Bft) SW 225 0 min 0,0 UV-I 3,7 C 4,0 C 2,7 km/h (1 Bft)
18.10.2009 20:35 5,5 C 9,0 C 4,9 C 5,0 C 4,1 C 0,0 C 89 % 94 % 0 % 1021,7 hPa 0,0 l/m 1,6 km/h (1 Bft) S-SW 202 0 min 0,0 UV-I 3,8 C 4,1 C 1,6 km/h (1 Bft)
18.10.2009 20:40 5,5 C 9,0 C 4,9 C 5,1 C 4,2 C 0,0 C 89 % 94 % 0 % 1021,7 hPa 0,0 l/m 0,8 km/h (0 Bft) S 180 0 min 0,0 UV-I 3,8 C 4,2 C 0,0 km/h (0 Bft)
18.10.2009 20:45 5,5 C 9,0 C 5,0 C 5,1 C 4,2 C 0,0 C 89 % 94 % 0 % 1021,8 hPa 0,0 l/m 0,8 km/h (0 Bft) SW 225 0 min 0,0 UV-I 3,8 C 4,2 C 2,1 km/h (1 Bft)
18.10.2009 20:50 5,5 C 9,0 C 4,9 C 5,1 C 4,3 C 0,0 C 89 % 94 % 0 % 1021,8 hPa 0,0 l/m 0,6 km/h (0 Bft) SW 225 0 min 0,0 UV-I 3,8 C 4,3 C 1,6 km/h (1 Bft)
18.10.2009 20:55 5,5 C 9,0 C 5,0 C 5,1 C 4,3 C 0,0 C 89 % 94 % 0 % 1021,8 hPa 0,0 l/m 0,3 km/h (0 Bft) S 180 0 min 0,0 UV-I 3,8 C 4,3 C 0,0 km/h (0 Bft)
18.10.2009 21:00 5,4 C 9,0 C 5,1 C 5,0 C 4,3 C 0,0 C 89 % 94 % 0 % 1021,8 hPa 0,0 l/m 0,3 km/h (0 Bft) S-SO 157 0 min 0,0 UV-I 3,7 C 4,3 C 1,9 km/h (1 Bft)
18.10.2009 21:10 5,5 C 9,0 C 5,1 C 5,1 C 4,3 C 0,0 C 89 % 94 % 0 % 1021,8 hPa 0,0 l/m 1,1 km/h (1 Bft) S-SW 202 0 min 0,0 UV-I 3,8 C 4,3 C 2,1 km/h (1 Bft)
18.10.2009 21:15 5,5 C 9,0 C 5,0 C 5,1 C 4,4 C 0,0 C 89 % 94 % 0 % 1021,8 hPa 0,0 l/m 1,4 km/h (1 Bft) S-SW 202 0 min 0,0 UV-I 3,8 C 4,4 C 1,8 km/h (1 Bft)
18.10.2009 21:20 5,5 C 9,0 C 5,1 C 5,1 C 4,4 C 0,0 C 89 % 94 % 0 % 1021,8 hPa 0,0 l/m 1,1 km/h (1 Bft) S-SW 202 0 min 0,0 UV-I 3,8 C 4,4 C 0,0 km/h (0 Bft)
18.10.2009 21:25 5,4 C 9,0 C 5,1 C 5,0 C 4,3 C 0,0 C 89 % 94 % 0 % 1021,8 hPa 0,0 l/m 0,5 km/h (0 Bft) S-SW 202 0 min 0,0 UV-I 3,7 C 4,3 C 0,0 km/h (0 Bft)
18.10.2009 21:30 5,3 C 9,0 C 5,1 C 4,9 C 4,2 C 0,0 C 89 % 94 % 0 % 1021,8 hPa 0,0 l/m 0,0 km/h (0 Bft) S-SW 202 0 min 0,0 UV-I 3,6 C 4,2 C 0,0 km/h (0 Bft)
18.10.2009 21:35 5,3 C 9,1 C 5,1 C 4,9 C 4,0 C 0,0 C 89 % 94 % 0 % 1021,8 hPa 0,0 l/m 0,0 km/h (0 Bft) S-SW 202 0 min 0,0 UV-I 3,6 C 4,0 C 0,0 km/h (0 Bft)
18.10.2009 21:40 5,2 C 9,1 C 4,9 C 4,8 C 3,9 C 0,0 C 89 % 94 % 0 % 1021,8 hPa 0,0 l/m 0,0 km/h (0 Bft) S-SW 202 0 min 0,0 UV-I 3,5 C 3,9 C 0,0 km/h (0 Bft)
18.10.2009 21:45 5,2 C 9,1 C 4,8 C 4,7 C 3,8 C 0,0 C 89 % 94 % 0 % 1021,5 hPa 0,0 l/m 0,0 km/h (0 Bft) S-SW 202 0 min 0,0 UV-I 3,5 C 3,8 C 0,0 km/h (0 Bft)
18.10.2009 21:50 5,0 C 9,1 C 4,8 C 4,6 C 3,7 C 0,0 C 90 % 94 % 0 % 1021,5 hPa 0,0 l/m 0,0 km/h (0 Bft) S-SW 202 0 min 0,0 UV-I 3,5 C 3,7 C 0,0 km/h (0 Bft)
18.10.2009 21:55 5,1 C 9,1 C 4,8 C 4,6 C 3,7 C 0,0 C 90 % 94 % 0 % 1021,5 hPa 0,0 l/m 0,0 km/h (0 Bft) S-SW 202 0 min 0,0 UV-I 3,6 C 3,7 C 0,0 km/h (0 Bft)
18.10.2009 22:00 5,0 C 9,1 C 4,8 C 4,6 C 3,7 C 0,0 C 90 % 95 % 0 % 1021,5 hPa 0,0 l/m 0,0 km/h (0 Bft) S-SW 202 0 min 0,0 UV-I 3,5 C 3,7 C 0,0 km/h (0 Bft)
18.10.2009 22:10 5,1 C 9,1 C 4,8 C 4,6 C 3,5 C 0,0 C 91 % 95 % 0 % 1022,2 hPa 0,0 l/m 0,0 km/h (0 Bft) S-SW 202 0 min 0,0 UV-I 3,8 C 3,5 C 0,0 km/h (0 Bft)
18.10.2009 22:15 5,1 C 9,2 C 4,7 C 4,5 C 3,4 C 0,0 C 90 % 94 % 0 % 1022,2 hPa 0,0 l/m 0,0 km/h (0 Bft) S-SW 202 0 min 0,0 UV-I 3,6 C 3,4 C 0,0 km/h (0 Bft)
18.10.2009 22:20 4,9 C 9,2 C 4,6 C 4,3 C 3,2 C 0,0 C 90 % 94 % 0 % 1022,2 hPa 0,0 l/m 0,0 km/h (0 Bft) S-SW 202 0 min 0,0 UV-I 3,4 C 3,2 C 0,0 km/h (0 Bft)
18.10.2009 22:25 4,9 C 9,2 C 4,7 C 4,3 C 3,1 C 0,0 C 91 % 94 % 0 % 1021,9 hPa 0,0 l/m 0,0 km/h (0 Bft) S-SW 202 0 min 0,0 UV-I 3,6 C 3,1 C 0,0 km/h (0 Bft)
18.10.2009 22:30 5,0 C 9,1 C 4,6 C 4,4 C 3,1 C 0,0 C 91 % 94 % 0 % 1021,9 hPa 0,0 l/m 0,0 km/h (0 Bft) S-SW 202 0 min 0,0 UV-I 3,7 C 3,1 C 0,0 km/h (0 Bft)
18.10.2009 22:35 5,0 C 9,1 C 4,6 C 4,4 C 3,2 C 0,0 C 91 % 94 % 0 % 1021,9 hPa 0,0 l/m 0,0 km/h (0 Bft) S 180 0 min 0,0 UV-I 3,7 C 3,2 C 0,0 km/h (0 Bft)
18.10.2009 22:40 4,9 C 9,1 C 4,6 C 4,4 C 3,3 C 0,0 C 91 % 94 % 0 % 1021,9 hPa 0,0 l/m 0,0 km/h (0 Bft) W-SW 247 0 min 0,0 UV-I 3,6 C 3,3 C 0,0 km/h (0 Bft)
18.10.2009 22:45 5,0 C 9,1 C 4,6 C 4,5 C 3,4 C 0,0 C 91 % 94 % 0 % 1022,1 hPa 0,0 l/m 0,0 km/h (0 Bft) S-SW 202 0 min 0,0 UV-I 3,7 C 3,4 C 0,0 km/h (0 Bft)
18.10.2009 22:50 5,0 C 9,1 C 4,6 C 4,5 C 3,6 C 0,0 C 91 % 94 % 0 % 1022,1 hPa 0,0 l/m 0,0 km/h (0 Bft) SW 225 0 min 0,0 UV-I 3,7 C 3,6 C 0,0 km/h (0 Bft)
18.10.2009 22:55 4,9 C 9,1 C 4,7 C 4,5 C 3,7 C 0,0 C 91 % 94 % 0 % 1022,1 hPa 0,0 l/m 0,0 km/h (0 Bft) SW 225 0 min 0,0 UV-I 3,6 C 3,7 C 0,0 km/h (0 Bft)
18.10.2009 23:00 5,0 C 9,1 C 4,6 C 4,6 C 3,7 C 0,0 C 91 % 94 % 0 % 1022,1 hPa 0,0 l/m 0,0 km/h (0 Bft) S-SO 157 0 min 0,0 UV-I 3,7 C 3,7 C 0,0 km/h (0 Bft)
18.10.2009 23:10 4,8 C 9,1 C 4,7 C 4,4 C 3,7 C 0,0 C 91 % 94 % 0 % 1022,1 hPa 0,0 l/m 0,0 km/h (0 Bft) S-SO 157 0 min 0,0 UV-I 3,5 C 3,7 C 0,0 km/h (0 Bft)
18.10.2009 23:15 4,9 C 9,1 C 4,7 C 4,5 C 3,7 C 0,0 C 91 % 94 % 0 % 1022,1 hPa 0,0 l/m 0,0 km/h (0 Bft) S-SO 157 0 min 0,0 UV-I 3,6 C 3,7 C 0,0 km/h (0 Bft)
18.10.2009 23:20 4,9 C 9,0 C 4,7 C 4,5 C 3,6 C 0,0 C 91 % 94 % 0 % 1022,1 hPa 0,0 l/m 0,0 km/h (0 Bft) S-SO 157 0 min 0,0 UV-I 3,6 C 3,6 C 0,0 km/h (0 Bft)
18.10.2009 23:25 4,9 C 9,0 C 4,6 C 4,5 C 3,6 C 0,0 C 91 % 94 % 0 % 1022,1 hPa 0,0 l/m 0,0 km/h (0 Bft) S 180 0 min 0,0 UV-I 3,6 C 3,6 C 0,0 km/h (0 Bft)
18.10.2009 23:30 4,8 C 9,0 C 4,7 C 4,4 C 3,6 C 0,0 C 91 % 95 % 0 % 1022,1 hPa 0,0 l/m 0,0 km/h (0 Bft) W-NW 292 0 min 0,0 UV-I 3,5 C 3,6 C 0,0 km/h (0 Bft)
18.10.2009 23:35 4,8 C 9,1 C 4,6 C 4,4 C 3,6 C 0,0 C 91 % 95 % 0 % 1022,1 hPa 0,0 l/m 0,0 km/h (0 Bft) W-SW 247 0 min 0,0 UV-I 3,5 C 3,6 C 0,0 km/h (0 Bft)
18.10.2009 23:40 4,8 C 9,1 C 4,7 C 4,4 C 3,6 C 0,0 C 91 % 95 % 0 % 1022,1 hPa 0,0 l/m 0,0 km/h (0 Bft) S 180 0 min 0,0 UV-I 3,5 C 3,6 C 0,0 km/h (0 Bft)
18.10.2009 23:45 4,8 C 9,1 C 4,7 C 4,4 C 3,6 C 0,0 C 91 % 95 % 0 % 1022,1 hPa 0,0 l/m 0,0 km/h (0 Bft) S-SW 202 0 min 0,0 UV-I 3,5 C 3,6 C 0,0 km/h (0 Bft)
18.10.2009 23:50 4,8 C 9,1 C 4,7 C 4,4 C 3,6 C 0,0 C 91 % 95 % 0 % 1022,1 hPa 0,0 l/m 0,0 km/h (0 Bft) O 90 0 min 0,0 UV-I 3,5 C 3,6 C 0,0 km/h (0 Bft)
18.10.2009 23:55 4,8 C 9,1 C 4,7 C 4,4 C 3,7 C 0,0 C 91 % 95 % 0 % 1022,1 hPa 0,0 l/m 0,0 km/h (0 Bft) O-NO 67 0 min 0,0 UV-I 3,5 C 3,7 C 0,0 km/h (0 Bft)
_ Min-Zeit 23:10 13:25 22:20 22:20 22:25 00:00 16:25 16:25 00:00 05:10 - 00:00 - - - 00:00 22:20 22:25 00:00
Minimum _ 4,8 C 8,6 C 4,6 C 4,3 C 3,1 C 0,0 C 77 % 83 % 0 % 1019,6 hPa - 0,0 km/h (0 Bft) - - - 0,0 UV-I 3,4 C 3,1 C 0,0 km/h (0 Bft)
_ Max-Zeit 16:10 22:15 15:50 15:55 15:55 15:55 00:00 00:00 15:40 22:10 08:00 15:35 - - 16:10 13:20 14:15 15:55 09:10
Maximum _ 8,1 C 9,2 C 10,6 C 14,0 C 14,0 C 6,1 C 93 % 98 % 100 % 1022,2 hPa 0,7 l/m 4,7 km/h
SW (1 Bft)
- - 10 min 0,6 UV-I 4,9 C 14,0 C 15,0 km/h
S (3 Bft)
Durchschnitt _ 5,7 C 8,9 C 5,5 C 6,0 C 5,6 C 0,5 C 90 % 95 % 11 % 1020,6 hPa #0,7 l/m 1,4 km/h (1 Bft) W-SW - #55 min. 0,3 UV-I 4,1 C 5,6 C 2,1 km/h (1 Bft)
2013 www.wetterstation-wechselburg.de